sat.trackr.live / text

‹ back to catalog

STARLINK-4021

NORAD 53149 · 2022-083T

PAYLOAD ACTIVE UNKNOWN

§ Identity

Operator
Country
US
Launch date
2022-07-17
Launch site
AFETR
Launch vehicle
Mass (kg)
RCS (m²)

Purposes: comms

External: N2YO · Heavens-Above · Gunter

§ Orbital elements

Epoch: 2026-09-19T22:12:11.416896Z

Period
93.85 min
Inclination
53.1625°
Eccentricity
0.0001256
Mean motion
15.34387096 rev/d
Perigee alt
461.9 km
Apogee alt
463.6 km
Semi-major
6,840.9 km
B*
1.8838e-5
RAAN
358.2253°
Arg perigee
85.8499°
Mean anomaly
274.2647°
Rev number
23,087

§ Raw data

STARLINK-40211 53149U 22083T   26262.92513214  .00000260  00000+0  18838-4 0  99912 53149  53.1625 358.2253 0001256  85.8499 274.2647 15.34387096230879

JSON: /api/v1/satellites/53149 · /tle

For live sub-satellite position, see the globe view (requires WebGL).

§ Visibility from observer

Set your observer location to see the next 7 days of passes ≥ 10°. The values pass through the URL so the page stays shareable.

No JS? Fill the form by hand. The geolocation button needs JavaScript.